Location: Dillon
(41.1766°N, 107.0923°W)
Time: 01:39:06
(UTC+00:00)

RS-44 - Visible Passes

Search period start: 26 June 2022 00:00
Search period end: 06 July 2022 00:00
Orbit: 1175 x 1509 km, 82.5° (Epoch: 25 June)

Date Brightness Start Highest point End Pass type
(mag) Time Alt. Az. Time Alt. Az. Time Alt. Az.
26 Jun ? 04:26:40 10° SSW 04:34:31 71° W 04:43:04 10° N visible
26 Jun ? 06:25:56 10° W 06:29:50 14° WNW 06:33:52 10° NNW visible
27 Jun ? 04:50:57 10° SW 04:58:32 46° WNW 05:06:43 10° N visible
28 Jun ? 03:21:05 10° SSE 03:28:49 58° E 03:37:09 10° NNE visible
28 Jun ? 05:15:51 10° SW 05:22:46 31° WNW 05:30:07 10° N visible
29 Jun ? 03:44:29 10° S 03:52:29 87° E 04:01:10 10° N visible
29 Jun ? 05:41:32 10° WSW 05:47:12 20° WNW 05:53:09 10° NNW visible
30 Jun ? 04:08:24 10° SSW 04:16:21 64° WNW 04:24:57 10° N visible
30 Jun ? 06:08:41 10° WNW 06:11:53 12° NW 06:15:11 10° NNW visible
01 Jul ? 04:32:51 10° SW 04:40:25 42° WNW 04:48:33 10° N visible
02 Jul ? 03:02:36 10° S 03:10:34 65° E 03:19:08 10° NNE visible
02 Jul ? 04:57:55 10° WSW 05:04:43 28° WNW 05:11:53 10° N visible
03 Jul ? 03:26:08 10° S 03:34:17 85° W 03:43:05 10° N visible
03 Jul ? 05:23:52 10° W 05:29:13 18° WNW 05:34:46 10° NNW visible
04 Jul ? 03:50:11 10° SSW 03:58:13 57° WNW 04:06:50 10° N visible
04 Jul ? 05:51:49 10° WNW 05:53:58 11° NW 05:56:09 10° NW visible
05 Jul ? 04:14:48 10° SW 04:22:20 38° WNW 04:30:22 10° N visible
